Flag for U.S.A. Weather past 2 weeks in Paterson, New Jersey, U.S.A.

Now
60 °F

Sunny.


Feels Like: 60 °F
Forecast: 58 / 77 °F
Wind: No wind

Location: Essex County Airport

Current Time: Aug 29, 2014 at 8:57:36 AM

Latest Report: Aug 29, 2014 at 7:53 AM


Visibility: 10 mi

Pressure: 30.19 "Hg

Humidity: 75%

Dew point: 52 °F

Location of PatersonLocation

Historic Weather in Paterson — Graph

°F

Paterson temperature yesterday

Maximum temperature yesterday: 79 °F (at 3:53 PM)
Minimum temperature yesterday: 62 °F (at 11:53 PM)
Average temperature yesterday: 72 °F

Past Weeks' High & Low Weather Summary

 TemperatureHumidityPressure
High89 °F (Aug 27, 4:53 PM)94% (Aug 21, 3:53 AM)30.20 "Hg (Aug 21, 3:53 AM)
Low53 °F (Aug 29, 5:53 AM)33% (Aug 16, 1:53 PM)29.84 "Hg (Aug 14, 5:53 PM)
Average70 °F64%30.01 "Hg
* Reported Aug 14 7:53 AM — Aug 29 7:53 AM, Paterson, Weather by CustomWeather, © 2014

Note: Actual official high and low records may vary slightly from our data, if they occured in-between our weather recording intervals... More about our weather records

Advertising

Paterson weather history for previous 24 hours

 ConditionsComfort  
Time TempWeatherWind HumidityBarometerVisibility
7:53 AM
Aug 29
60 °FSunny.No wind75%30.19 "Hg10 mi
6:53 AM54 °FClear.No wind86%30.17 "Hg10 mi
5:53 AM53 °FClear.No wind86%30.15 "Hg10 mi
4:53 AM54 °FClear.No wind83%30.13 "Hg10 mi
3:53 AM55 °FClear.No wind80%30.11 "Hg10 mi
2:53 AM56 °FClear.No wind77%30.11 "Hg10 mi
1:53 AM58 °FClear.No wind70%30.11 "Hg10 mi
12:53 AM59 °FClear.No wind67%30.10 "Hg10 mi
11:53 PM
Aug 28
62 °FClear.No wind56%30.09 "Hg10 mi
10:53 PM63 °FClear.No wind52%30.07 "Hg10 mi
9:53 PM67 °FClear.6 mph45%30.06 "Hg10 mi
8:53 PM69 °FClear.7 mph47%30.04 "Hg10 mi
7:53 PM71 °FPassing clouds.9 mph44%30.00 "Hg10 mi
6:53 PM75 °FSunny.12 mph40%29.97 "Hg10 mi
5:53 PM77 °FScattered clouds.10 mph39%29.95 "Hg10 mi
4:53 PM78 °FSunny.9 mph37%29.93 "Hg10 mi
3:53 PM79 °FPassing clouds.13 mph35%29.92 "Hg10 mi
2:53 PM78 °FSunny.13 mph37%29.92 "Hg10 mi
1:53 PM77 °FScattered clouds.14 mph40%29.93 "Hg10 mi
12:53 PM76 °FPassing clouds.15 mph45%29.92 "Hg10 mi
11:53 AM75 °FSunny.14 mph48%29.93 "Hg10 mi
10:53 AM73 °FSunny.9 mph53%29.94 "Hg10 mi
9:53 AM71 °FSunny.9 mph55%29.94 "Hg10 mi
8:53 AM69 °FSunny.7 mph59%29.95 "Hg10 mi
Weather by CustomWeather, © 2014

See weather overviewHow to use our weather pages